Regional Weather Roundup
Issued by NWS Charleston, SC

Current Version | Previous Version | Text Only | Print | Product List | Glossary Off
Versions: 1 2 3 4 5 6 7 8 9 10 11 12 13 14 15 16 17 18 19 20 21 22 23 24 25 26 27 28 29 30 31 32 33 34 35 36 37 38 39 40 41 42 43 44 45 46 47 48 49 50

222
ASUS42 KCHS 180627
RWRCHS

REGIONAL WEATHER ROUNDUP
NATIONAL WEATHER SERVICE CHARLESTON SC
100 AM EST WED JAN 18 2017

NOTE: "FAIR" INDICATES FEW OR NO CLOUDS BELOW 12,000 FEET WITH NO
SIGNIFICANT WEATHER AND/OR OBSTRUCTIONS TO VISIBILITY.

NOT ALL STATIONS ARE QUALITY CONTROLLED. USE DATA WITH CAUTION...
ESPECIALLY DEWPOINT OBSERVATIONS.

SCZ027-030-031-034>040-042>050-180700-
...SOUTHEAST SOUTH CAROLINA...

CITY           SKY/WX    TMP DP  RH WIND       PRES   REMARKS
N CHARLESTON   PTCLDY    61  57  87 SW9       30.13F
6HR MIN TEMP:  59; 6HR MAX TEMP:  65;

WATERFRONT PRK   N/A     62  60  93 SW7       30.12F
MOUNT PLEASANT FAIR      64  61  88 SW7       30.13F
JOHNS ISLAND   FAIR      64  61  88 SW13      30.13F
PINOPOLIS        N/A    N/A N/A N/A SW7       30.03F
MONCKS CORNER  FAIR      59  57  94 SW6       30.11F
SUMMERVILLE    FAIR      61  61 100 SW5       30.13S
BEAUFORT MCAS  CLOUDY    60  58  92 SW7       30.14F
6HR MIN TEMP:  60; 6HR MAX TEMP:  63;

BEAUFORT ARPT  FAIR      61  59  94 SW5       30.13F
HILTON HEAD IS PTCLDY    64  61  88 SW9       30.15F
WALTERBORO     PTCLDY    63 N/A N/A S8        30.12F
ALLENDALE      FAIR      63  57  82 CALM      30.10F

...SOUTHERN MIDLANDS AND PEE DEE...

CITY           SKY/WX    TMP DP  RH WIND       PRES   REMARKS
GEORGETOWN     FAIR      59  57  94 SW8       30.12S
KINGSTREE      FAIR      59  55  88 CALM      30.09S
ORANGEBURG     PTCLDY    62  57  83 SW6       30.10F
6HR MIN TEMP:  60; 6HR MAX TEMP:  67;

BARNWELL       FAIR      64  59  82 SW7       30.11S
AIKEN          FAIR      61  55  82 SW8       30.13S
MANNING        FAIR      61  55  82 S5        30.10F
COLUMBIA       MOCLDY    65  55  70 SW6       30.07F
6HR MIN TEMP:  62; 6HR MAX TEMP:  68;

SUMTER         PTCLDY    62  56  82 S10       30.05F
6HR MIN TEMP:  59; 6HR MAX TEMP:  65;

FLORENCE       PTCLDY    63  58  83 SW12      30.07F
6HR MIN TEMP:  60; 6HR MAX TEMP:  63;

MYRTLE BEACH   MOCLDY    64  57  77 SW9       30.11F
N MYRTLE BEACH PTCLDY    58  57  97 SW13      30.08F
6HR MIN TEMP:  56; 6HR MAX TEMP:  59;


$$

GAZ063-065-086>088-099>101-113>116-118-119-134>141-150-180700-
...SOUTHEAST GEORGIA...

CITY           SKY/WX    TMP DP  RH WIND       PRES   REMARKS
SAVANNAH ARPT  CLEAR     61  57  87 SW7       30.16F
6HR MIN TEMP:  61; 6HR MAX TEMP:  65;

HUNTER AAF     CLEAR     62  61  97 SW6       30.14F
6HR MIN TEMP:  61; 6HR MAX TEMP:  63;

FORT STEWART   PTCLDY    57  56  94 CALM      30.14F
6HR MIN TEMP:  57; 6HR MAX TEMP:  64;

STATESBORO     PTCLDY    64  60  87 SW5       30.14F
SYLVANIA       PTCLDY   N/A N/A N/A CALM      30.14F
CLAXTON        FAIR     N/A N/A N/A CALM      30.16S

...CSRA...CENTRAL AND FAR SOUTHEAST GEORGIA...

CITY           SKY/WX    TMP DP  RH WIND       PRES   REMARKS
THOMSON        CLOUDY    65  60  82 SW7       30.15F
AUGUSTA-BUSH   MOCLDY    65  56  72 SW3       30.10F
6HR MIN TEMP:  61; 6HR MAX TEMP:  70;

AUGUSTA-DANIEL PTCLDY    65  55  70 SW7       30.11F
SWAINSBORO     FAIR      63  59  88 SW5       30.14F
VIDALIA        CLOUDY    63  61  94 SW6       30.15F
EASTMAN        FAIR      64  54  69 CALM      30.18F
HAZLEHURST     FAIR      63  62  95 SW6       30.15F
ALMA           CLOUDY    62  60  93 SW5       30.17F
6HR MIN TEMP:  57; 6HR MAX TEMP:  65;

WAYCROSS       CLOUDY    62  62 100 SW5       30.18S
JESUP          FAIR      55  54  94 CALM      30.17F
BAXLEY         FAIR      63  63 100 SW3       30.17F
BRUNSWICK      PTCLDY    61  61 100 SW5       30.19F
SAINT SIMONS   CLOUDY    62  59  90 SW7       30.17F
6HR MIN TEMP:  61; 6HR MAX TEMP:  65;


$$

SCZ027-028-034-036>038-045-046-048>050-GAZ119-141-180700-
...LAKE AND SUPPLEMENTAL COASTAL OBSERVATIONS...

STATION/POSITION TIME  TEMP    WIND        PRES    WAVE   SWELL
                       AIR SEA DIR/SP/G            HT/PER HT/PER/DIR
                 (UTC) (F)     (DEG/KT/KT) (MB)    (FT/S) (FT/S/D)
WINYAH BAY       0530   62     230/  7     1019.0F
LAKE MURRAY      0520   64     220/  9/ 11 1018.3F
ACE BASIN NERRS  0530   58        CALM     1021.0F
FORT PULASKI     0600   61 57  230/  4/  6 1021.4
SAPELO ISLAND    0600   59        CALM     1022.0

$$

ANZ835-935-AMZ111-154-330-350-352-354-370-450-454-472-180700-
...C-MAN AND BUOY OBSERVATIONS...

STATION/POSITION TIME  TEMP    WIND        PRES    WAVE   SWELL
                       AIR SEA DIR/SP/G            HT/PER HT/PER/DIR
                 (UTC) (F)     (DEG/KT/KT) (MB)    (FT/S) (FT/S/D)
BUOY 41004       0550   71 70  220/ 16/ 17 1019.8F   3/ 8   2/120/ 8
BUOY 41008       0550   62 59  230/  8/ 10 1021.6F   2/ 9   2/ 80/ 9
FOLLY BEACH CMAN 0600   61     240/  8/ 13 1020.9F
CAPERS NEARSHORE 0508   57 54  240/ 10/ 12 1020.7F
FRIPP NEARSHORE  0608   59 57  230/ 10/ 12 1020.4F


STATION/POSITION TIME  TEMP    WIND        PRES    WAVE   SWELL
                       AIR SEA DIR/SP/G            HT/PER HT/PER/DIR
                 (UTC) (F)     (DEG/KT/KT) (MB)    (FT/S) (FT/S/D)
5E ST. MARYS GA  0600      61                N/A     2/10
FRYING PAN BUOY  0610   71 72  220/ 19/ 25 1018.9
BUOY 41025       0550   71 72  220/ 25/ 29 1015.5F   4/ 5   2/350/10
CAPE LOOKOUT NC  0600   63     230/ 11/ 17 1017.2F
BUOY 41002       0550   72 72  210/ 16/ 19 1021.7F   3/ 4   2/ 80/ 8
BUOY 41010       NOT AVBL
ST AUGUSTINE FL  0600   64 62  230/  5/  6 1023.2F


$$




USA.gov is the U.S. government's official web portal to all federal, state and local government web resources and services.